EW5123 Weather Reports


Display with metric or nautical units.
time (UTC)temp
F
wind
direction
speed
MPH
gust
MPH
rain 1hr
in
rain 24hr
in
rain mn
in
humidity
%
barometer
mb
20260509183409 69 8 4.0 12.0 0.00 0.00 0.00 21 979.6
20260509183405 70 30 5.0 14.0 0.00 0.00 0.00 19 979.6
20260509182410 69 0 4.0 10.0 0.00 0.00 0.00 21 979.8
20260509182405 70 309 4.0 11.0 0.00 0.00 0.00 20 979.6
20260509181905 69 30 4.0 11.0 0.00 0.00 0.00 20 979.6
20260509180903 69 300 5.0 10.0 0.00 0.00 0.00 22 979.8
20260509180403 69 256 5.0 13.0 0.00 0.00 0.00 21 979.8
20260509175903 69 345 5.0 13.0 0.00 0.00 0.00 21 979.8
20260509175403 69 322 5.0 13.0 0.00 0.00 0.00 21 979.6
20260509174907 69 31 5.0 12.0 0.00 0.00 0.00 20 979.9
20260509174903 69 335 6.0 13.0 0.00 0.00 0.00 22 979.8
20260509174508 69 353 5.0 16.0 0.00 0.00 0.00 21 979.9
20260509174009 69 332 3.0 16.0 0.00 0.00 0.00 24 979.9
20260509172902 69 8 3.0 10.0 0.00 0.00 0.00 21 979.9
20260509172400 68 296 5.0 11.0 0.00 0.00 0.00 21 980.0
20260509171901 68 6 6.0 11.0 0.00 0.00 0.00 22 980.0
20260509171405 68 8 5.0 14.0 0.00 0.00 0.00 23 980.0
20260509171401 68 13 6.0 12.0 0.00 0.00 0.00 21 980.1
20260509170401 67 334 5.0 14.0 0.00 0.00 0.00 22 979.9
20260509165901 67 6 6.0 13.0 0.00 0.00 0.00 21 980.0
20260509165400 67 331 5.0 13.0 0.00 0.00 0.00 21 980.0
20260509164900 67 346 6.0 12.0 0.00 0.00 0.00 23 980.0
20260509164401 67 318 7.0 12.0 0.00 0.00 0.00 21 980.0
20260509163859 67 339 7.0 13.0 0.00 0.00 0.00 22 979.9
20260509163359 67 26 7.0 14.0 0.00 0.00 0.00 21 980.0
20260509162902 66 349 6.0 13.0 0.00 0.00 0.00 24 979.8
20260509162858 67 321 6.0 14.0 0.00 0.00 0.00 24 979.8
20260509161859 66 342 6.0 13.0 0.00 0.00 0.00 23 979.8
20260509161358 65 337 6.0 13.0 0.00 0.00 0.00 25 979.8
20260509160859 65 314 5.0 11.0 0.00 0.00 0.00 23 979.8
20260509160402 64 18 5.0 13.0 0.00 0.00 0.00 26 979.8
20260509160358 65 333 5.0 10.0 0.00 0.00 0.00 25 979.9
20260509155403 64 289 4.0 12.0 0.00 0.00 0.00 25 979.9
20260509155359 64 312 5.0 13.0 0.00 0.00 0.00 25 979.9
20260509154358 64 39 3.0 7.0 0.00 0.00 0.00 26 979.9
20260509153858 63 311 4.0 9.0 0.00 0.00 0.00 27 980.0
20260509153358 63 22 4.0 9.0 0.00 0.00 0.00 26 980.0
20260509152859 63 351 3.0 8.0 0.00 0.00 0.00 26 980.1
20260509152403 63 295 2.0 6.0 0.00 0.00 0.00 29 980.1
20260509151903 62 337 2.0 5.0 0.00 0.00 0.00 29 980.1
20260509151358 62 326 3.0 7.0 0.00 0.00 0.00 27 980.2
20260509150857 61 302 3.0 7.0 0.00 0.00 0.00 30 980.1
20260509150356 61 23 2.0 7.0 0.00 0.00 0.00 29 980.2
20260509145856 61 314 2.0 6.0 0.00 0.00 0.00 29 980.2
20260509145357 61 30 1.0 6.0 0.00 0.00 0.00 33 980.2
20260509144900 60 340 1.0 3.0 0.00 0.00 0.00 35 980.5
20260509144856 60 342 1.0 4.0 0.00 0.00 0.00 35 980.4
20260509144502 60 330 0.0 5.0 0.00 0.00 0.00 36 980.4
20260509143355 60 328 0.0 5.0 0.00 0.00 0.00 38 980.4
20260509142854 60 276 1.0 5.0 0.00 0.00 0.00 39 980.4
20260509142353 59 333 1.0 5.0 0.00 0.00 0.00 40 980.4
20260509141854 59 301 1.0 4.0 0.00 0.00 0.00 38 980.4
20260509141355 58 226 1.0 4.0 0.00 0.00 0.00 39 980.4
20260509140854 57 283 0.0 3.0 0.00 0.00 0.00 41 980.4
20260509135855 55 193 0.0 2.0 0.00 0.00 0.00 44 980.2
20260509135353 55 219 0.0 1.0 0.00 0.00 0.00 44 980.2
20260509134856 54 272 0.0 2.0 0.00 0.00 0.00 46 980.1
20260509134852 55 235 0.0 1.0 0.00 0.00 0.00 44 980.2
20260509133852 54 246 0.0 3.0 0.00 0.00 0.00 46 980.1
20260509133357 51 217 0.0 2.0 0.00 0.00 0.00 51 980.0
20260509133353 53 243 0.0 3.0 0.00 0.00 0.00 47 980.0
20260509132352 50 250 0.0 0.0 0.00 0.00 0.00 60 979.9
20260509131852 51 250 0.0 1.0 0.00 0.00 0.00 59 980.0
20260509131350 52 250 0.0 1.0 0.00 0.00 0.00 54 979.9
20260509130850 51 210 0.0 2.0 0.00 0.00 0.00 51 979.9
20260509130351 49 206 0.0 2.0 0.00 0.00 0.00 54 979.8
20260509125850 46 226 0.0 1.0 0.00 0.00 0.00 71 979.8
20260509125349 46 200 0.0 0.0 0.00 0.00 0.00 71 979.8
20260509124848 45 200 0.0 0.0 0.00 0.00 0.00 72 979.8
20260509124348 44 200 0.0 0.0 0.00 0.00 0.00 72 979.5
20260509123853 42 200 0.0 0.0 0.00 0.00 0.00 74 979.4
20260509123848 43 200 0.0 0.0 0.00 0.00 0.00 73 979.4
20260509122848 42 200 0.0 0.0 0.00 0.00 0.00 74 979.4
20260509122348 41 200 0.0 0.0 0.00 0.00 0.00 75 979.3
20260509121848 41 200 0.0 0.0 0.00 0.00 0.00 74 979.3
20260509121350 41 199 0.0 0.0 0.00 0.00 0.00 74 979.2
20260509120848 41 200 0.0 0.0 0.00 0.00 0.00 74 979.2
20260509120348 42 199 0.0 0.0 0.00 0.00 0.00 72 979.1
20260509115846 42 199 0.0 0.0 0.00 0.00 0.00 71 978.8
20260509115346 43 199 0.0 0.0 0.00 0.00 0.00 70 978.8
20260509114846 43 199 0.0 0.0 0.00 0.00 0.00 69 978.7
20260509114349 44 200 0.0 0.0 0.00 0.00 0.00 68 978.8
20260509114345 43 200 0.0 0.0 0.00 0.00 0.00 69 978.7
20260509113346 44 199 0.0 0.0 0.00 0.00 0.00 66 978.7
20260509112850 46 199 0.0 0.0 0.00 0.00 0.00 64 978.7
20260509112846 45 200 0.0 0.0 0.00 0.00 0.00 65 978.6
20260509111846 46 200 0.0 1.0 0.00 0.00 0.00 64 978.6
20260509111346 46 204 0.0 3.0 0.00 0.00 0.00 64 978.6
20260509110844 46 207 0.0 3.0 0.00 0.00 0.00 64 978.6
20260509110344 46 201 0.0 1.0 0.00 0.00 0.00 65 978.8
20260509105844 47 204 0.0 1.0 0.00 0.00 0.00 63 978.8
20260509105344 47 210 0.0 0.0 0.00 0.00 0.00 61 978.8
20260509104846 48 233 0.0 2.0 0.00 0.00 0.00 60 978.9
20260509104842 48 210 0.0 1.0 0.00 0.00 0.00 61 978.9
20260509103841 48 224 0.0 2.0 0.00 0.00 0.00 60 978.9
20260509103342 48 356 0.0 0.0 0.00 0.00 0.00 62 978.9
20260509102843 48 355 0.0 0.0 0.00 0.00 0.00 61 978.8
20260509102344 49 338 0.0 0.0 0.00 0.00 0.00 59 978.8
20260509101839 49 338 0.0 1.0 0.00 0.00 0.00 58 978.7
20260509101340 49 338 0.0 2.0 0.00 0.00 0.00 58 978.6
20260509100839 50 258 0.0 2.0 0.00 0.00 0.00 58 978.6
20260509100340 50 359 1.0 8.0 0.00 0.00 0.00 57 978.5
20260509095840 51 235 2.0 8.0 0.00 0.00 0.00 55 978.5
20260509095340 51 179 4.0 10.0 0.00 0.00 0.00 55 978.3
20260509094840 51 196 5.0 11.0 0.00 0.00 0.00 55 978.2
20260509094344 51 208 5.0 13.0 0.00 0.00 0.00 56 978.2
20260509094340 51 188 6.0 11.0 0.00 0.00 0.00 56 978.2
20260509093338 51 195 5.0 13.0 0.00 0.00 0.00 57 978.3
20260509092838 51 221 5.0 11.0 0.00 0.00 0.00 56 978.3
20260509092338 51 204 5.0 11.0 0.00 0.00 0.00 56 978.3
20260509091842 51 200 5.0 9.0 0.00 0.00 0.00 56 978.5
20260509091838 51 153 4.0 9.0 0.00 0.00 0.00 56 978.5
20260509090837 51 226 6.0 11.0 0.00 0.00 0.00 55 978.5
20260509090338 52 201 6.0 11.0 0.00 0.00 0.00 54 978.3
20260509085844 53 206 7.0 16.0 0.00 0.00 0.00 53 978.5
20260509085837 52 203 6.0 11.0 0.00 0.00 0.00 54 978.5
20260509085338 53 217 7.0 12.0 0.00 0.00 0.00 53 978.5
20260509084337 53 171 7.0 16.0 0.00 0.00 0.00 53 978.5
20260509083838 53 200 7.0 15.0 0.00 0.00 0.00 52 978.5
20260509083337 53 205 8.0 15.0 0.00 0.00 0.00 52 978.5
20260509082838 53 216 7.0 14.0 0.00 0.00 0.00 52 978.5
20260509082337 53 207 7.0 13.0 0.00 0.00 0.00 52 978.5
20260509081837 53 205 8.0 14.0 0.00 0.00 0.00 52 978.5
20260509081337 53 198 9.0 17.0 0.00 0.00 0.00 52 978.5
20260509080837 53 205 9.0 17.0 0.00 0.00 0.00 52 978.5
20260509080338 53 159 9.0 19.0 0.00 0.00 0.00 53 978.5
20260509075837 53 192 10.0 19.0 0.00 0.00 0.00 53 978.5
20260509075341 53 201 10.0 18.0 0.00 0.00 0.00 54 978.5
20260509075337 53 176 10.0 17.0 0.00 0.00 0.00 53 978.5
20260509074337 53 224 10.0 18.0 0.00 0.00 0.00 54 978.5
20260509073837 53 200 10.0 18.0 0.00 0.00 0.00 54 978.5
20260509073337 53 186 9.0 17.0 0.00 0.00 0.00 55 978.5
20260509072838 53 151 9.0 16.0 0.00 0.00 0.00 55 978.5
20260509072337 53 180 8.0 15.0 0.00 0.00 0.00 56 978.7
20260509071837 52 155 8.0 15.0 0.00 0.00 0.00 56 978.7
20260509071336 52 198 8.0 15.0 0.00 0.00 0.00 57 978.8
20260509070836 52 178 7.0 14.0 0.00 0.00 0.00 57 978.9
20260509070336 51 196 6.0 14.0 0.00 0.00 0.00 59 979.1
20260509065833 51 200 4.0 12.0 0.00 0.00 0.00 60 979.3
20260509065333 50 155 2.0 9.0 0.00 0.00 0.00 61 979.3
20260509064833 50 166 0.0 4.0 0.00 0.00 0.00 62 979.5
20260509064333 50 122 0.0 2.0 0.00 0.00 0.00 62 979.5
20260509063834 50 139 0.0 2.0 0.00 0.00 0.00 62 979.5
20260509063333 50 156 0.0 1.0 0.00 0.00 0.00 61 979.6
20260509062839 51 132 0.0 2.0 0.00 0.00 0.00 59 979.9
20260509062834 50 151 0.0 1.0 0.00 0.00 0.00 60 979.8
20260509062333 51 169 0.0 1.0 0.00 0.00 0.00 59 979.9
20260509061338 51 138 0.0 4.0 0.00 0.00 0.00 59 980.0
20260509061333 51 194 0.0 2.0 0.00 0.00 0.00 59 980.0
20260509060335 52 140 1.0 4.0 0.00 0.00 0.00 59 980.2
20260509060331 52 139 0.0 4.0 0.00 0.00 0.00 59 980.1
20260509055327 52 129 1.0 4.0 0.00 0.00 0.00 59 980.2
20260509054828 52 164 2.0 4.0 0.00 0.00 0.00 59 980.4
20260509054329 52 146 2.0 5.0 0.00 0.00 0.00 59 980.6
20260509053826 53 179 2.0 6.0 0.00 0.00 0.00 58 980.5
20260509053330 53 159 3.0 6.0 0.00 0.00 0.00 57 980.6
20260509053326 53 151 3.0 6.0 0.00 0.00 0.00 57 980.5
20260509052931 53 195 3.0 8.0 0.00 0.00 0.00 58 980.7
20260509051826 52 165 4.0 8.0 0.00 0.00 0.00 58 980.6
20260509051331 52 172 4.0 7.0 0.00 0.00 0.00 60 980.6
20260509051326 52 186 4.0 8.0 0.00 0.00 0.00 59 980.6
20260509050324 51 193 3.0 7.0 0.00 0.00 0.00 60 980.6
20260509045828 51 158 2.0 7.0 0.00 0.00 0.00 62 980.6
20260509045823 51 163 2.0 5.0 0.00 0.00 0.00 62 980.6
20260509044828 51 147 1.0 4.0 0.00 0.00 0.00 62 980.8
20260509044824 51 179 2.0 7.0 0.00 0.00 0.00 62 980.7
20260509043824 51 140 1.0 3.0 0.00 0.00 0.00 63 980.9
20260509043324 50 146 1.0 3.0 0.00 0.00 0.00 64 980.8
20260509042824 50 193 1.0 3.0 0.00 0.00 0.00 66 980.9
20260509042324 49 124 0.0 2.0 0.00 0.00 0.00 68 980.8
20260509041823 49 178 0.0 1.0 0.00 0.00 0.00 69 980.9
20260509041322 49 198 0.0 0.0 0.00 0.00 0.00 70 981.1
20260509040822 49 197 0.0 0.0 0.00 0.00 0.00 69 981.2
20260509040321 49 197 0.0 0.0 0.00 0.00 0.00 67 981.1
20260509035822 49 197 0.0 0.0 0.00 0.00 0.00 66 981.1
20260509035327 49 197 0.0 0.0 0.00 0.00 0.00 66 980.8
20260509035322 49 197 0.0 0.0 0.00 0.00 0.00 67 980.9
20260509034322 49 197 0.0 0.0 0.00 0.00 0.00 66 980.8
20260509033822 49 197 0.0 0.0 0.00 0.00 0.00 67 980.7
20260509033322 50 197 0.0 0.0 0.00 0.00 0.00 66 980.7
20260509032821 50 197 0.0 0.0 0.00 0.00 0.00 65 980.7
20260509032320 51 197 0.0 0.0 0.00 0.00 0.00 64 980.7
20260509031820 51 197 0.0 0.0 0.00 0.00 0.00 64 980.7
20260509031320 51 197 0.0 0.0 0.00 0.00 0.00 64 980.6
20260509030820 52 197 0.0 0.0 0.00 0.00 0.00 64 980.5
20260509030320 52 151 0.0 3.0 0.00 0.00 0.00 64 980.4
20260509025819 52 179 1.0 3.0 0.00 0.00 0.00 62 980.4
20260509025320 52 159 0.0 3.0 0.00 0.00 0.00 63 980.2
20260509024821 52 163 0.0 2.0 0.00 0.00 0.00 63 980.2
20260509024319 53 160 0.0 2.0 0.00 0.00 0.00 62 980.1
20260509023820 53 197 0.0 2.0 0.00 0.00 0.00 61 980.1
20260509023317 53 141 0.0 1.0 0.00 0.00 0.00 60 980.1
20260509022817 54 143 0.0 1.0 0.00 0.00 0.00 60 980.1
20260509022317 55 170 0.0 0.0 0.00 0.00 0.00 58 980.1
20260509021817 55 151 0.0 0.0 0.00 0.00 0.00 56 980.1
20260509021316 56 151 0.0 0.0 0.00 0.00 0.00 55 980.0
20260509020816 56 118 0.0 1.0 0.00 0.00 0.00 53 979.9
20260509020316 57 125 0.0 1.0 0.00 0.00 0.00 53 979.9
20260509015816 58 129 0.0 1.0 0.00 0.00 0.00 51 979.9
20260509015314 58 128 0.0 1.0 0.00 0.00 0.00 50 979.9
20260509014817 58 122 0.0 1.0 0.00 0.00 0.00 49 979.8
20260509014813 59 155 0.0 0.0 0.00 0.00 0.00 49 979.6
20260509013812 59 155 0.0 0.0 0.00 0.00 0.00 48 979.5
20260509013312 60 142 0.0 0.0 0.00 0.00 0.00 47 979.4
20260509012812 60 141 0.0 1.0 0.00 0.00 0.00 46 979.4
20260509012312 61 142 0.0 2.0 0.00 0.00 0.00 44 979.3
20260509011810 61 34 0.0 2.0 0.00 0.00 0.00 44 979.3
20260509011314 62 269 0.0 1.0 0.00 0.00 0.00 43 979.4
20260509011310 62 234 0.0 1.0 0.00 0.00 0.00 44 979.4
20260509010915 62 137 0.0 1.0 0.00 0.00 0.00 44 979.3
20260509005808 63 296 0.0 1.0 0.00 0.00 0.00 42 979.5
20260509005308 63 221 0.0 2.0 0.00 0.00 0.00 42 979.6
20260509004808 64 314 0.0 3.0 0.00 0.00 0.00 41 979.6
20260509004314 65 249 0.0 3.0 0.00 0.00 0.00 41 979.5
20260509003813 64 230 0.0 1.0 0.00 0.00 0.00 41 979.5
20260509003809 64 148 0.0 1.0 0.00 0.00 0.00 41 979.5
20260509002807 64 188 0.0 1.0 0.00 0.00 0.00 42 979.4
20260509002308 63 280 0.0 1.0 0.00 0.00 0.00 41 979.4
20260509001808 64 340 0.0 1.0 0.00 0.00 0.00 41 979.3
20260509001308 65 192 0.0 1.0 0.00 0.00 0.00 40 979.4
20260509000808 65 217 0.0 4.0 0.00 0.00 0.00 39 979.3
20260509000307 66 281 1.0 5.0 0.00 0.00 0.00 38 979.4
20260508235808 66 0 1.0 5.0 0.00 0.00 0.00 37 979.4
20260508235308 67 327 0.0 3.0 0.00 0.00 0.00 36 979.3
20260508234807 67 319 0.0 3.0 0.00 0.00 0.00 37 979.3
20260508234308 68 241 1.0 5.0 0.00 0.00 0.00 37 979.3
20260508233807 67 104 1.0 5.0 0.00 0.00 0.00 36 979.2
20260508233308 68 359 1.0 5.0 0.00 0.00 0.00 37 979.2
20260508232807 67 320 1.0 6.0 0.00 0.00 0.00 37 979.2
20260508232307 68 347 0.0 6.0 0.00 0.00 0.00 36 979.3
20260508231808 68 32 1.0 6.0 0.00 0.00 0.00 37 979.2
20260508231312 67 327 2.0 8.0 0.00 0.00 0.00 36 979.3
20260508231307 67 313 2.0 8.0 0.00 0.00 0.00 39 979.3
20260508230307 68 206 0.0 5.0 0.00 0.00 0.00 37 979.3
20260508225807 69 176 0.0 3.0 0.00 0.00 0.00 36 979.4
20260508225307 68 140 0.0 2.0 0.00 0.00 0.00 37 979.3
20260508224807 68 228 0.0 3.0 0.00 0.00 0.00 38 979.3
20260508224311 68 143 2.0 10.0 0.00 0.00 0.00 39 979.3
20260508224306 67 335 2.0 10.0 0.00 0.00 0.00 38 979.3
20260508223305 67 330 2.0 6.0 0.00 0.00 0.00 38 979.3
20260508222806 68 354 1.0 6.0 0.00 0.00 0.00 38 979.3
20260508222306 68 332 1.0 6.0 0.00 0.00 0.00 37 979.3
20260508221805 69 358 0.0 4.0 0.00 0.00 0.00 36 979.4
20260508221305 68 120 1.0 5.0 0.00 0.00 0.00 36 979.4
20260508220805 67 158 1.0 5.0 0.00 0.00 0.00 37 979.4
20260508220305 68 306 0.0 3.0 0.00 0.00 0.00 37 979.4
20260508215803 69 111 0.0 2.0 0.00 0.00 0.00 38 979.5
20260508215306 68 157 0.0 5.0 0.00 0.00 0.00 37 979.6
20260508214801 68 229 0.0 5.0 0.00 0.00 0.00 37 979.6
20260508214301 67 226 1.0 7.0 0.00 0.00 0.00 36 979.6
20260508213800 66 252 2.0 7.0 0.00 0.00 0.00 39 979.6
20260508213301 66 0 2.0 7.0 0.00 0.00 0.00 39 979.6
20260508212801 66 27 2.0 7.0 0.00 0.00 0.00 39 979.8
20260508212301 67 16 1.0 7.0 0.00 0.00 0.00 36 979.8
20260508211801 67 326 1.0 4.0 0.00 0.00 0.00 39 979.8
20260508211301 67 332 1.0 5.0 0.00 0.00 0.00 40 979.9
20260508210801 66 297 1.0 8.0 0.00 0.00 0.00 40 979.9
20260508210301 65 5 2.0 8.0 0.00 0.00 0.00 40 980.0
20260508205803 65 344 3.0 9.0 0.00 0.00 0.00 39 980.0
20260508205759 65 4 3.0 8.0 0.00 0.00 0.00 39 980.0
20260508204757 65 340 3.0 9.0 0.00 0.00 0.00 38 980.0
20260508204257 65 7 3.0 9.0 0.00 0.00 0.00 39 979.9
20260508203757 65 349 3.0 10.0 0.00 0.00 0.00 38 980.0
20260508203257 66 356 2.0 10.0 0.00 0.00 0.00 37 980.2
20260508202757 67 16 1.0 7.0 0.00 0.00 0.00 37 980.1
20260508202258 66 151 1.0 7.0 0.00 0.00 0.00 39 980.2
20260508201757 65 352 2.0 8.0 0.00 0.00 0.00 40 980.2
20260508201257 65 335 2.0 9.0 0.00 0.00 0.00 39 980.1
20260508200757 65 307 2.0 9.0 0.00 0.00 0.00 41 980.2
20260508200257 65 342 2.0 8.0 0.00 0.00 0.00 39 980.2
20260508195754 65 230 4.0 11.0 0.00 0.00 0.00 41 980.4
20260508195255 64 13 4.0 11.0 0.00 0.00 0.00 38 980.4
20260508194755 64 340 3.0 11.0 0.00 0.00 0.00 40 980.4
20260508194255 65 359 3.0 11.0 0.00 0.00 0.00 36 980.4
20260508193755 65 128 3.0 10.0 0.00 0.00 0.00 37 980.4
20260508193255 65 207 3.0 8.0 0.00 0.00 0.00 39 980.4
20260508192254 63 330 4.0 10.0 0.00 0.00 0.00 40 980.5
20260508191757 64 334 4.0 12.0 0.00 0.00 0.00 39 980.6
20260508191753 64 329 4.0 11.0 0.00 0.00 0.00 37 980.5
20260508191359 64 4 3.0 12.0 0.00 0.00 0.00 37 980.5
20260508190253 64 342 2.0 8.0 0.00 0.00 0.00 40 980.6
20260508185753 64 321 3.0 9.0 0.00 0.00 0.00 38 980.6
20260508185253 64 322 3.0 9.0 0.00 0.00 0.00 39 980.6
20260508184753 63 349 3.0 8.0 0.00 0.00 0.00 38 980.6